Wind_Speed
20 20 20 20 20 20 20 19 19 19 18 18 18 17 17 17 17 18 17 17 15 14 13 13 13 13 13 13 12 13 13 14 15 16 16 19 21 20 19 17 15 15 15 13 13 14 15 15 15 15 14 13 12 11 11 10 10 10 10 11 10 8 7 8 9 8 8 7 6 7 7 6 5 4 3 3 4 4 4 4 3 4 6 6 8 9 5 5
23 23 23 23 23 23 22 22 22 21 21 21 20 20 19 19 18 18 18 18 17 16 16 14 14 15 14 14 14 14 14 15 16 14 16 20 21 21 20 19 19 18 17 17 17 18 18 18 18 17 17 15 14 13 12 11 11 11 11 11 11 10 9 9 10 10 9 8 8 8 8 7 6 5 4 4 5 5 4 4 4 4 5 7 9 10 9 5
25 25 25 25 25 25 25 25 24 24 24 23 23 23 22 21 20 20 19 19 19 18 18 16 15 16 15 15 15 16 16 16 16 14 16 19 19 21 21 21 22 22 21 21 20 21 21 21 20 19 18 17 15 14 13 12 12 11 11 12 11 11 10 10 10 10 10 10 10 9 8 6 6 7 6 5 5 5 4 4 4 5 5 7 9 10 11 6
25 25 26 26 26 26 26 26 26 26 26 26 26 26 25 24 23 22 22 21 20 20 19 18 17 17 17 16 17 17 17 17 16 15 17 18 18 21 22 23 25 25 24 22 20 20 20 20 19 18 18 17 16 15 14 14 13 12 12 13 12 12 11 10 11 11 10 11 11 11 9 7 7 7 8 7 6 6 5 4 4 5 6 7 8 9 11 10
25 25 26 26 26 27 27 27 27 27 27 27 27 27 27 27 26 26 25 24 23 22 21 20 19 19 18 18 18 18 18 18 18 17 19 19 19 20 22 25 26 26 25 24 22 21 19 19 18 17 16 16 15 14 16 15 14 14 13 13 13 13 11 11 12 12 12 11 11 10 9 8 8 8 9 9 8 6 6 5 4 5 6 8 8 8 10 12
24 24 25 25 26 26 26 27 27 27 27 28 27 28 28 28 28 28 28 27 26 25 24 22 21 21 20 19 19 19 19 19 19 20 20 20 20 21 22 24 26 26 26 25 24 23 21 20 19 18 17 17 15 15 17 16 15 15 14 14 14 14 12 13 13 13 13 13 11 10 9 9 9 9 9 9 8 7 7 6 6 6 6 7 8 8 8 11
23 23 23 24 25 26 26 26 27 27 27 28 28 28 28 29 29 29 29 29 29 28 27 25 24 23 22 21 20 20 21 19 21 23 22 21 21 21 22 22 24 26 27 26 25 24 23 22 21 20 20 19 17 17 18 17 16 17 16 16 16 15 15 15 15 15 14 13 12 11 10 9 10 9 8 9 8 8 8 7 7 7 7 8 8 8 6 7
22 23 23 23 24 25 26 25 26 26 27 27 27 27 28 29 29 30 30 30 30 30 29 28 27 26 25 24 23 22 23 21 23 24 23 22 22 23 23 23 23 24 26 27 27 27 26 25 24 24 23 22 21 20 20 20 18 18 18 18 18 17 17 17 16 16 15 14 13 12 11 10 10 9 8 9 9 9 9 8 8 7 7 9 9 9 7 7
23 24 24 24 25 26 26 26 26 27 27 27 27 27 27 28 29 30 30 31 31 31 30 30 30 29 28 27 26 25 25 24 24 24 23 24 23 24 25 24 24 24 25 27 29 28 27 27 28 28 27 27 26 24 23 22 20 21 22 21 20 19 18 18 17 17 17 16 15 14 12 11 11 11 9 10 10 10 10 9 9 9 8 9 9 9 8 9
26 27 27 27 28 28 29 29 28 28 29 28 28 27 28 28 28 29 30 31 31 31 31 32 31 31 31 30 29 29 29 27 25 24 24 25 24 25 26 26 25 25 26 27 28 28 28 30 32 32 32 31 30 28 27 24 23 25 25 23 22 21 19 19 18 18 19 18 16 16 14 13 12 12 11 10 10 10 10 9 9 10 9 9 10 10 9 9
29 29 29 30 30 31 32 32 32 32 32 31 30 30 30 29 29 29 30 30 30 31 31 32 32 33 33 32 32 32 31 29 26 25 25 25 25 26 28 28 27 27 27 27 28 30 34 35 35 34 33 32 31 31 29 26 26 28 28 25 24 22 21 20 19 18 19 19 18 18 15 13 13 12 12 11 10 9 9 9 10 11 11 10 9 10 10 10
30 30 30 31 32 32 33 34 34 35 35 35 34 34 33 32 31 31 31 31 30 30 31 32 32 33 33 34 34 33 33 32 30 28 27 26 26 27 29 30 29 28 28 28 30 32 36 36 35 35 34 33 33 32 30 29 29 30 30 27 25 24 22 21 21 19 19 20 19 19 15 13 14 15 13 11 10 9 9 11 11 11 11 11 10 10 10 10
31 31 31 31 32 33 34 34 35 36 36 36 36 37 36 36 35 34 34 32 31 31 31 31 32 33 34 35 35 34 35 35 34 31 29 28 28 28 30 31 30 29 29 29 31 32 34 35 36 37 36 35 35 34 31 30 32 32 31 28 26 25 22 23 23 21 20 20 20 18 16 15 17 17 15 12 12 11 11 12 12 12 12 11 10 10 10 9
32 32 32 32 33 34 34 35 36 36 37 38 38 38 39 38 38 38 37 35 34 33 32 31 31 33 34 35 35 34 35 37 36 35 33 31 29 29 31 32 31 31 31 31 32 32 32 33 35 37 36 36 35 34 32 31 33 33 33 30 25 22 21 23 25 23 22 21 20 18 17 17 18 17 16 15 14 12 12 13 13 12 13 12 11 10 10 9
35 35 35 35 36 36 36 37 37 37 38 38 39 40 40 40 40 41 40 38 37 36 35 33 32 33 34 35 36 35 35 36 37 36 36 34 32 31 32 32 32 32 33 34 33 33 33 33 33 34 35 36 36 35 33 32 33 34 34 30 23 18 19 22 24 23 23 23 21 19 19 19 19 19 17 16 15 14 13 13 13 13 13 13 12 11 10 10
39 39 39 39 40 40 39 40 40 39 39 39 40 40 41 41 42 43 42 40 39 39 37 36 34 34 34 35 36 37 36 36 36 37 37 36 35 34 34 33 33 32 33 34 35 35 35 34 33 32 34 36 36 36 34 33 34 35 34 29 22 18 19 21 21 22 24 24 21 20 20 20 21 21 19 18 16 15 15 14 14 14 13 13 12 12 11 11
41 42 43 43 43 43 43 43 43 42 41 41 41 41 41 42 43 44 44 43 41 40 39 39 37 36 36 35 36 38 37 36 37 38 38 38 38 37 37 36 35 34 34 35 36 36 36 35 34 33 34 34 35 36 36 34 33 33 31 27 22 20 21 21 19 21 24 24 22 22 23 21 22 23 21 20 18 17 17 16 16 16 14 13 13 13 13 12
44 45 46 46 46 46 46 45 45 44 43 42 42 42 42 42 43 44 45 45 43 42 41 41 40 39 39 38 37 38 38 38 38 38 38 39 39 39 40 40 38 37 37 37 37 37 37 36 35 35 34 33 33 33 33 31 30 30 28 26 23 23 23 21 20 22 23 23 24 25 25 23 23 24 23 22 21 20 19 19 18 17 16 15 14 14 14 14
47 48 48 48 48 48 47 47 46 45 44 43 43 43 43 43 43 45 46 46 45 44 44 43 42 42 41 40 39 39 40 40 39 40 39 39 40 41 42 43 42 41 40 39 38 37 36 36 37 36 32 29 27 27 28 28 28 29 29 28 27 26 25 23 23 23 24 24 25 26 27 27 25 24 24 25 24 23 22 21 19 17 17 16 15 14 15 15
49 49 50 50 49 49 48 47 47 45 44 43 43 43 43 43 43 44 47 47 46 45 44 44 44 43 43 42 41 41 42 42 41 41 41 40 41 42 43 45 45 44 43 40 40 38 36 38 37 32 26 25 26 27 27 27 28 30 31 31 30 29 27 27 27 26 26 25 25 28 30 30 28 25 25 27 27 25 23 21 19 18 17 17 16 15 15 15
50 50 50 50 49 49 48 47 47 46 45 44 43 43 43 43 42 42 44 47 48 47 45 45 44 44 44 43 43 43 43 44 44 43 42 41 42 43 44 46 47 46 44 42 42 40 40 39 33 27 27 29 29 29 28 27 27 30 32 32 32 31 29 29 30 28 27 26 26 28 30 30 29 27 27 29 28 26 23 21 20 19 19 19 18 16 15 14
50 49 49 49 49 49 48 47 46 45 45 45 44 43 42 42 41 41 40 43 47 48 47 46 45 44 44 44 44 44 45 46 46 45 44 43 44 44 45 46 47 47 46 46 45 43 43 37 27 27 32 33 32 32 30 29 28 30 33 33 33 31 29 30 31 30 30 27 26 28 30 30 29 29 30 29 28 27 25 24 23 23 23 21 20 19 17 15
49 48 48 48 49 48 47 45 43 43 41 40 39 39 39 39 39 40 40 39 43 46 46 47 47 46 44 45 45 45 46 47 48 47 46 44 45 45 45 46 47 48 48 49 48 46 43 33 25 30 35 34 35 34 32 31 31 32 34 34 34 31 29 32 33 33 33 29 28 29 29 30 30 31 30 28 28 29 29 27 27 26 26 26 25 23 21 19
46 46 46 46 46 46 43 40 38 36 33 32 32 32 34 35 35 37 37 37 40 42 43 45 47 47 45 45 45 45 46 48 49 49 47 46 46 47 46 46 47 49 50 50 48 48 44 34 30 36 36 34 36 36 35 34 33 33 33 33 34 32 31 33 33 33 34 32 29 30 30 32 33 32 31 29 29 32 31 29 28 27 27 29 28 25 22 20
43 43 43 42 43 41 37 32 30 28 27 27 28 29 31 32 33 33 33 33 35 38 39 42 45 46 46 45 45 46 46 47 49 49 49 48 47 47 47 47 48 49 49 49 49 49 45 38 38 41 38 35 38 37 37 36 33 33 33 32 33 33 33 34 34 34 35 35 32 32 33 33 34 33 32 32 32 33 33 31 29 28 29 29 27 24 22 21
41 41 40 39 37 34 28 26 26 26 27 28 28 30 31 31 32 32 31 30 31 33 35 38 41 43 44 45 45 45 46 47 48 48 49 48 48 48 48 48 49 49 48 49 50 51 47 42 43 45 41 39 39 39 39 37 36 34 30 30 33 34 36 36 35 36 37 38 35 35 36 34 35 36 34 35 35 34 34 33 31 30 29 29 27 25 23 21
40 39 37 35 32 28 24 25 26 27 29 29 30 32 33 32 30 30 30 30 29 29 30 33 36 38 41 42 43 44 44 45 47 48 48 48 48 48 49 50 50 50 49 50 52 52 47 45 47 48 44 42 41 39 37 36 37 33 27 31 35 36 38 37 38 39 39 39 38 38 39 36 37 37 35 36 37 38 37 34 33 32 31 30 27 25 24 22
38 36 34 31 28 25 25 25 26 28 30 30 32 33 33 32 29 27 28 29 26 24 26 27 29 31 34 36 38 41 43 44 46 47 47 48 48 48 49 51 51 51 51 51 53 51 46 45 48 48 46 45 41 37 35 37 38 32 29 35 36 36 38 39 41 41 39 40 42 41 42 40 39 37 35 36 38 39 37 34 35 34 32 30 28 27 25 24
35 33 31 29 27 26 26 26 28 30 31 31 32 33 32 30 28 25 26 28 26 24 25 25 25 26 27 28 31 35 39 42 44 45 46 47 48 48 48 50 51 52 53 53 53 50 45 46 49 49 49 47 41 37 37 39 38 33 34 38 37 37 40 42 45 44 43 46 47 44 44 44 39 37 38 38 37 35 34 35 36 35 34 32 29 28 27 25
32 31 28 27 27 28 29 29 30 30 31 32 32 31 29 28 25 23 24 24 24 25 26 26 26 25 24 25 27 29 33 38 40 42 44 46 47 48 48 50 51 53 54 55 55 52 47 47 50 51 52 49 45 44 42 41 39 37 40 42 39 39 41 44 47 47 49 52 49 45 45 47 40 38 41 38 33 32 32 36 37 37 36 32 30 30 28 26
30 29 27 27 28 29 31 32 31 31 31 32 31 29 27 25 23 22 21 21 22 22 23 24 25 26 26 26 28 28 29 33 36 37 41 44 45 46 47 49 52 53 55 56 56 54 50 49 51 53 53 52 50 49 47 44 41 42 45 46 43 42 42 45 48 51 55 53 48 45 46 48 41 36 40 36 31 33 34 35 37 37 37 34 32 31 28 27
29 30 29 30 31 31 32 32 31 31 31 30 29 28 26 25 23 22 21 21 21 20 19 21 22 23 25 26 29 30 30 31 33 35 37 39 42 44 46 49 52 54 56 57 57 56 53 50 51 53 54 54 53 52 51 48 46 47 49 50 48 46 47 49 51 54 56 52 47 46 47 49 41 31 36 36 33 34 33 32 36 37 36 35 34 32 29 28
31 32 32 33 33 33 32 32 31 29 29 29 29 28 27 26 25 24 23 24 24 22 21 22 22 22 23 25 27 31 33 33 33 35 36 37 38 41 44 47 50 53 55 57 57 57 55 54 54 55 56 56 55 54 54 52 51 50 51 52 52 51 50 51 52 54 54 52 49 48 49 50 42 29 32 33 31 32 31 31 34 36 36 37 35 33 32 31
33 34 34 34 33 32 31 30 29 28 27 28 29 30 29 29 28 26 26 27 27 27 26 26 25 25 25 26 28 30 33 35 36 36 37 37 37 38 41 45 48 51 54 56 57 57 57 57 57 58 57 57 56 56 56 54 52 51 50 51 51 52 50 49 50 51 53 53 50 51 53 51 45 32 27 28 29 30 31 30 33 37 38 38 37 35 34 33
34 34 34 32 31 29 29 28 28 27 27 28 29 30 31 32 31 30 30 30 30 30 30 30 30 30 31 32 33 33 33 35 37 39 39 39 39 37 38 41 45 49 53 55 57 58 58 58 59 59 58 57 57 58 57 55 54 52 51 52 53 51 48 47 48 47 49 51 50 54 56 50 45 34 24 27 29 29 31 31 33 38 40 40 38 35 33 32
35 35 33 30 29 28 27 26 26 25 25 26 27 29 30 32 32 33 33 33 34 34 34 34 35 36 38 37 37 36 35 35 36 39 42 42 41 39 38 39 42 46 51 54 57 59 59 59 60 60 59 58 57 57 57 56 56 55 54 55 54 50 47 48 49 47 48 51 52 55 55 48 46 38 25 27 30 29 32 34 34 38 40 39 37 34 33 32
34 34 32 29 28 28 27 26 25 23 23 23 24 26 27 29 30 32 33 33 34 35 36 37 38 38 39 38 36 36 36 36 36 38 42 44 43 42 40 38 40 43 48 53 56 58 60 59 60 61 60 59 58 57 56 56 57 56 55 54 51 49 50 51 51 50 50 52 53 55 53 48 46 40 29 27 29 29 32 34 35 37 39 38 36 34 33 33
34 34 32 30 29 28 27 27 25 24 24 23 23 23 24 26 27 28 31 32 33 35 35 36 37 36 37 36 36 35 36 38 38 38 41 44 45 44 42 40 40 42 45 50 54 57 59 60 61 61 60 59 58 57 56 57 56 56 56 54 52 53 54 54 54 53 53 54 54 53 52 49 45 39 31 27 28 29 31 33 35 38 39 37 35 34 34 32
35 34 32 30 29 28 28 27 26 25 25 24 24 24 24 24 26 27 29 31 32 33 33 34 34 34 35 36 36 36 37 38 40 39 40 42 45 45 44 43 42 42 44 48 52 55 58 60 61 61 60 59 59 58 57 57 57 56 56 56 55 56 55 53 54 53 52 54 54 53 52 50 44 37 32 27 26 29 31 33 36 39 39 38 36 34 33 32
35 34 32 29 28 28 27 27 26 25 25 25 25 25 24 25 26 27 28 29 30 31 32 32 33 34 35 36 36 37 38 39 40 40 40 42 44 45 45 44 44 43 43 45 50 54 56 59 61 61 60 59 59 59 58 58 59 58 58 59 58 57 56 55 55 54 53 54 55 54 53 49 41 35 33 30 27 29 32 33 36 39 40 39 37 35 34 33
35 33 31 29 27 27 26 26 25 25 25 25 25 25 25 26 27 27 28 28 29 30 31 32 33 34 36 37 37 38 39 40 40 40 41 41 44 46 46 45 45 44 43 43 47 52 55 58 61 61 60 59 60 59 58 58 60 60 61 62 60 59 59 58 57 56 55 56 56 55 55 50 42 36 34 32 29 30 32 32 33 38 40 39 37 37 36 36
36 32 29 27 27 26 26 25 24 24 24 25 25 25 25 26 27 27 28 28 29 30 31 32 33 34 35 36 36 37 38 39 39 39 40 41 43 46 46 45 45 45 44 43 44 49 53 57 59 60 60 59 59 59 58 58 59 61 62 62 61 60 61 60 58 57 56 57 57 56 56 52 43 36 34 32 29 30 33 34 33 35 39 39 38 38 39 38
36 32 28 27 26 26 26 25 24 24 24 24 24 25 25 26 26 27 27 28 28 29 30 31 32 33 34 35 35 35 36 37 38 38 38 40 42 45 46 46 45 45 46 45 44 46 51 54 57 57 58 57 56 57 59 58 58 60 62 62 62 62 62 61 59 58 58 58 58 57 57 52 42 35 33 32 29 30 33 36 35 35 37 39 39 39 39 38
35 32 29 26 26 26 26 25 25 24 23 23 23 23 24 24 25 25 26 27 28 28 29 29 31 32 33 32 31 30 31 34 35 36 36 38 41 44 45 46 46 46 46 46 45 46 49 53 55 54 55 55 54 55 59 59 58 60 62 63 64 63 62 61 60 60 59 59 58 57 57 51 39 32 33 31 29 30 32 35 37 36 37 39 41 41 40 39
34 32 30 27 26 26 26 25 25 24 22 22 21 22 23 23 23 24 25 26 26 26 27 28 29 29 28 25 24 24 26 29 31 33 33 35 38 41 43 44 45 46 46 47 47 46 48 51 54 53 53 56 56 57 61 62 61 61 63 64 64 64 63 62 61 62 60 58 57 57 57 50 37 31 32 31 29 30 31 33 36 37 38 39 41 42 42 41
33 31 30 29 28 26 26 25 25 24 23 22 21 22 22 22 22 23 24 24 24 24 25 26 27 25 21 19 18 20 21 23 26 28 29 31 35 38 39 41 42 44 45 47 47 47 47 49 51 53 52 55 58 59 62 63 62 62 63 64 64 65 65 64 64 63 61 59 58 58 56 48 37 32 31 31 31 32 32 34 36 38 40 41 42 42 42 41
33 31 31 31 30 28 26 25 25 25 24 23 22 22 22 21 21 22 23 23 23 23 24 24 23 20 17 16 16 17 17 17 19 21 24 27 31 34 35 37 39 41 42 45 47 48 48 48 49 51 51 52 56 60 62 61 62 62 63 64 65 65 66 66 66 64 61 60 59 58 54 47 39 34 32 32 34 35 35 36 37 39 41 43 44 44 44 44
33 32 31 32 31 29 27 27 27 27 26 25 23 22 21 20 20 22 23 22 22 23 23 23 21 18 15 14 15 15 15 14 13 14 17 20 26 30 31 32 35 38 39 42 45 47 49 49 48 50 51 50 53 59 62 61 61 62 62 63 64 65 66 67 67 64 62 63 61 57 52 46 40 35 33 33 35 37 38 39 39 41 43 44 45 47 48 48
32 31 31 31 30 29 28 29 29 29 28 26 24 22 21 19 20 21 22 22 21 22 23 21 19 17 15 14 14 14 14 13 12 12 13 14 19 24 27 27 30 34 37 40 42 45 48 49 48 49 50 49 51 55 61 62 62 61 61 62 63 65 66 67 67 65 64 65 61 56 52 46 40 36 34 33 35 37 39 39 40 42 45 47 48 49 49 50
31 31 31 31 30 29 29 29 29 29 28 26 23 21 19 19 19 20 20 21 21 22 22 20 17 16 15 15 14 14 13 13 13 13 14 13 14 19 22 24 26 29 34 38 40 42 45 47 48 48 49 49 49 51 56 61 63 62 61 61 62 64 66 67 67 66 66 66 61 57 52 45 41 39 34 33 37 39 38 39 40 43 46 48 49 49 49 48
31 31 31 31 29 29 30 30 30 29 28 25 23 21 19 18 19 19 18 19 20 21 20 18 16 15 15 15 14 12 12 12 13 14 15 15 15 16 19 21 24 26 29 34 39 41 42 45 48 49 49 48 49 49 52 57 62 63 62 60 61 64 66 67 67 66 67 67 62 59 53 44 42 41 35 34 39 40 39 40 41 43 46 48 48 47 46 45
30 30 30 30 29 29 30 30 31 31 29 25 23 21 19 17 19 20 19 17 18 20 19 17 15 15 15 14 13 12 10 11 12 13 14 15 15 16 17 19 22 25 27 31 36 40 43 44 46 48 49 47 48 50 50 53 59 63 63 60 60 64 66 66 67 67 68 67 63 60 52 44 43 41 35 36 41 41 40 41 41 44 47 46 45 44 43 42
Wind_Direction
286 286 286 285 285 285 285 284 284 284 284 283 283 282 281 281 279 279 278 277 274 270 264 258 255 251 245 240 238 234 231 230 228 227 225 224 224 226 227 224 221 221 224 221 212 211 217 218 217 220 220 217 215 211 207 202 194 190 190 183 175 181 189 180 171 167 165 165 175 192 200 201 200 197 206 188 153 142 137 144 169 180 166 161 162 144 150 204
286 285 285 284 284 283 283 282 282 281 281 280 280 279 278 278 278 278 277 276 274 270 266 261 256 253 249 243 239 236 233 233 232 225 223 225 224 224 226 224 221 220 221 220 216 215 217 219 219 218 217 216 214 210 206 203 197 192 193 192 181 183 194 194 186 181 176 175 186 203 206 197 192 183 177 169 148 138 131 138 157 179 170 169 181 160 149 190
286 286 285 284 283 282 281 281 280 279 279 278 278 277 276 275 275 275 275 274 273 271 269 264 259 255 251 246 241 238 235 235 234 225 225 228 225 225 224 224 222 220 221 219 216 215 215 216 216 214 213 213 210 208 206 203 201 195 194 198 192 189 199 207 201 191 183 183 191 201 204 199 196 182 164 157 146 135 129 142 155 164 169 178 194 178 149 149
288 287 287 285 284 283 282 281 280 279 278 277 276 276 275 274 273 272 272 272 272 271 270 267 262 258 254 249 244 240 237 236 234 227 228 228 223 224 222 222 223 221 222 222 220 220 220 220 220 218 216 214 211 208 209 208 204 198 198 203 200 196 199 210 208 193 184 187 193 194 191 199 207 183 155 147 146 140 137 147 157 161 170 178 194 194 159 138
290 290 289 288 286 285 284 282 281 280 278 277 276 275 274 273 272 271 269 269 269 268 268 268 266 261 256 252 247 242 239 238 236 228 229 229 223 223 221 222 224 222 223 223 222 223 223 224 225 225 224 221 218 214 213 213 207 204 206 206 205 201 196 207 206 190 184 188 197 196 183 190 203 181 155 150 153 153 152 152 164 172 172 176 183 198 177 145
293 292 291 290 289 287 286 284 283 281 280 278 276 275 274 272 271 270 268 267 266 265 265 266 265 264 260 255 251 247 242 238 237 232 228 230 227 224 222 223 224 223 224 223 223 223 222 222 225 228 230 228 225 220 219 219 212 211 210 206 208 203 195 205 204 190 185 184 197 204 186 186 197 184 163 159 164 169 166 158 167 177 170 172 174 187 194 160
297 296 295 294 292 290 288 287 286 284 281 279 278 276 275 273 271 270 268 267 265 264 263 262 262 263 262 259 254 250 245 238 237 235 228 228 229 229 225 222 224 223 223 224 223 223 223 223 224 226 228 229 227 222 223 225 221 219 214 210 213 207 198 204 205 197 187 180 194 206 193 190 198 193 174 164 172 173 168 162 165 174 167 164 163 170 196 180
301 300 300 299 297 295 293 291 289 287 284 282 280 278 276 274 272 270 268 267 265 263 262 261 260 259 259 259 256 252 248 240 238 237 230 227 228 230 229 223 222 222 222 222 221 220 220 220 222 223 224 226 226 222 222 223 223 226 223 216 216 212 205 205 207 204 189 180 196 206 201 200 203 202 184 166 170 174 172 166 163 168 167 159 156 161 174 172
305 304 303 302 301 299 296 294 292 290 288 285 283 281 279 276 274 272 269 267 265 263 261 260 258 257 255 256 256 254 250 243 239 239 234 230 227 230 232 226 223 222 221 221 221 220 218 219 220 220 220 221 222 220 220 219 220 226 225 220 218 213 209 207 209 206 191 185 198 209 209 212 213 209 195 175 171 176 177 170 161 160 161 156 151 155 164 165
307 306 305 304 302 300 298 297 295 292 290 287 285 283 281 278 277 274 271 269 266 264 262 260 257 256 254 253 253 252 251 248 243 241 238 233 230 230 233 229 224 223 221 219 220 218 217 218 219 218 218 219 220 219 220 217 218 225 224 219 218 214 209 210 210 204 194 189 198 210 213 216 220 217 205 190 177 177 179 173 163 158 155 154 150 148 155 162
308 307 306 304 303 301 299 298 296 294 291 289 287 285 282 279 277 275 273 270 268 266 263 261 258 256 254 252 250 251 252 252 248 244 241 237 233 232 234 231 226 225 222 219 217 216 216 217 217 218 219 220 221 222 221 217 218 226 226 219 218 215 208 210 213 205 198 196 201 209 213 218 226 224 213 200 185 178 181 179 171 164 158 153 150 147 149 154
308 307 306 305 303 302 300 298 297 295 293 290 288 286 283 281 278 275 273 271 270 268 265 262 260 258 255 252 249 249 251 251 249 245 241 238 235 234 235 233 228 226 225 221 218 218 218 218 217 218 219 220 222 223 221 218 220 226 229 223 218 215 206 207 213 208 204 204 204 204 210 221 228 225 214 201 187 180 183 184 176 170 165 156 151 148 147 151
308 307 306 305 303 301 300 298 297 295 293 291 289 286 284 281 279 276 273 271 269 268 267 264 262 260 257 254 250 248 248 248 248 247 244 241 238 235 236 236 231 228 227 225 224 223 222 220 220 220 219 219 221 223 221 220 223 227 232 229 220 215 206 205 210 209 207 208 203 196 200 219 227 222 212 199 189 185 187 189 183 173 167 159 153 149 146 146
309 308 307 306 304 303 301 299 297 295 293 291 289 286 284 282 280 277 273 271 269 267 266 264 263 261 259 256 252 248 247 247 247 247 246 243 241 238 237 237 235 231 229 227 225 226 226 224 223 224 223 222 222 224 222 222 225 228 233 233 226 217 206 206 210 207 207 209 203 189 191 215 224 218 211 201 194 190 190 195 191 179 168 162 156 150 146 144
308 307 306 306 305 303 302 301 299 296 294 291 288 286 284 282 280 277 274 271 269 267 265 264 262 261 259 257 254 250 247 246 245 245 245 243 242 240 239 238 237 234 231 229 227 226 226 226 225 226 227 226 226 226 224 223 226 229 233 236 233 223 208 209 211 206 208 211 204 188 188 209 218 214 210 204 200 195 192 195 194 184 175 169 161 151 144 141
308 307 306 305 304 302 301 300 299 297 295 292 290 287 284 281 279 277 274 272 269 266 264 262 261 259 258 257 255 252 249 246 244 243 242 242 241 240 240 239 238 237 235 233 231 229 227 226 225 225 226 227 228 228 226 224 226 230 234 237 238 232 218 213 211 207 210 212 203 190 190 204 212 210 210 206 203 200 195 194 193 188 183 178 169 156 144 138
308 307 306 305 304 302 301 299 298 296 295 292 290 288 285 282 279 276 274 271 269 266 264 261 259 257 256 254 254 253 250 247 244 242 240 239 239 239 239 239 238 237 237 235 233 231 230 228 226 225 225 226 227 229 228 226 229 232 236 239 240 237 229 221 212 209 212 211 201 191 191 200 208 211 211 207 204 204 200 196 194 191 188 185 177 163 147 138
308 307 306 305 304 302 301 300 298 297 294 292 289 287 285 283 280 277 274 271 268 266 263 260 258 255 253 252 251 251 251 247 244 242 239 237 237 237 237 237 237 235 235 235 234 232 231 230 229 227 226 225 226 230 232 232 234 235 238 242 243 240 236 229 219 213 213 210 200 192 192 197 206 212 214 210 206 206 204 202 198 195 193 190 184 172 154 141
309 308 307 306 304 303 301 300 298 296 295 292 289 287 285 283 280 278 274 271 268 265 262 259 257 255 253 251 249 248 249 248 245 243 240 237 235 235 235 236 236 236 235 234 234 233 231 230 229 229 229 231 232 233 236 235 235 234 235 237 238 238 237 234 228 220 214 211 202 193 192 197 205 213 218 216 212 211 211 209 203 199 197 194 188 178 162 148
313 311 309 307 305 304 302 300 298 297 295 293 290 288 285 283 281 278 276 272 267 264 262 259 257 255 252 250 248 246 246 247 244 242 241 237 235 234 234 234 235 235 235 235 235 234 232 230 228 228 231 233 233 232 231 230 229 230 230 230 231 232 232 231 230 225 218 212 204 196 194 198 202 210 219 219 218 220 220 213 203 199 198 194 188 180 170 158
315 313 312 310 308 306 304 302 300 298 296 294 292 289 286 283 280 278 276 274 269 265 261 258 255 254 252 249 247 245 244 245 243 242 240 238 236 234 233 233 234 235 235 236 236 235 233 230 226 225 226 226 226 226 226 223 221 223 226 227 228 229 228 230 231 230 224 215 207 202 199 201 202 205 215 219 220 227 226 214 201 198 199 195 189 181 174 166
315 314 313 311 309 308 307 305 303 301 299 297 294 291 288 285 280 276 273 272 271 267 263 259 254 251 250 249 247 244 243 243 242 241 239 238 237 235 233 233 234 234 233 234 234 234 234 231 225 222 224 224 224 224 222 219 214 216 219 220 223 226 226 229 232 232 230 219 211 209 203 203 204 203 211 216 219 225 223 210 201 199 199 196 188 180 171 165
315 313 312 311 309 308 308 307 305 304 303 300 298 295 292 288 283 278 272 268 268 267 264 261 257 252 249 247 245 244 242 242 241 240 238 237 237 237 235 233 233 233 232 232 233 234 234 232 227 226 225 223 224 224 223 219 214 212 214 213 217 221 222 227 231 232 233 225 215 214 207 204 207 205 206 211 215 221 220 212 208 206 202 198 194 187 177 170
314 313 312 311 309 308 307 307 306 306 307 306 305 303 298 293 288 283 276 270 266 264 262 260 258 254 250 247 245 243 241 241 240 239 237 236 235 236 236 234 234 233 233 233 233 233 232 227 223 226 227 225 224 224 223 222 218 214 213 211 211 215 219 225 230 232 235 231 221 219 213 205 208 208 203 206 211 218 220 217 216 213 208 207 202 197 189 180
314 312 311 309 307 307 307 307 307 309 311 312 314 314 308 299 292 288 283 277 270 266 262 259 256 254 251 249 246 243 241 240 239 238 237 235 234 234 235 235 234 234 233 233 233 232 229 222 219 224 224 223 224 224 223 223 221 218 215 212 210 211 216 220 226 230 233 234 227 222 218 207 208 210 203 202 208 214 220 220 218 216 214 213 208 201 195 186
313 311 310 308 306 306 307 307 309 311 312 312 316 319 317 308 296 288 285 283 277 272 266 260 256 254 251 249 247 245 243 240 239 238 236 234 233 232 231 232 233 234 233 233 233 231 228 221 221 224 222 220 221 221 222 221 221 220 215 214 213 211 213 215 221 226 229 232 229 225 223 209 206 212 205 202 204 208 217 219 217 218 216 213 209 203 196 188
312 310 309 307 304 303 305 308 310 311 309 309 313 316 317 315 304 291 285 283 281 277 272 264 259 254 251 249 247 245 243 241 239 238 237 235 233 231 229 229 230 231 232 232 233 231 227 222 222 224 223 221 221 219 220 221 221 218 212 216 218 213 211 212 217 223 227 231 230 229 228 214 207 212 209 204 203 205 212 217 217 219 216 211 207 202 196 189
312 310 309 306 303 302 304 307 308 308 306 305 307 309 312 314 311 299 288 283 282 280 275 269 265 257 251 249 247 245 243 241 239 238 237 235 233 230 229 228 228 228 229 231 233 231 226 225 225 224 224 223 222 220 220 221 219 213 209 217 219 214 212 210 213 220 224 230 230 229 231 224 211 210 213 210 205 205 210 214 217 219 216 210 206 201 196 191
314 312 310 306 303 304 305 306 306 304 304 303 302 304 306 309 311 306 294 286 284 282 277 274 271 264 259 254 249 245 243 241 238 237 236 236 234 230 228 227 226 226 226 228 231 229 224 224 225 224 223 223 221 219 220 220 217 208 208 216 218 216 213 211 212 214 217 225 228 226 231 232 218 206 213 215 208 206 209 213 217 218 216 209 204 202 199 196
317 314 310 306 304 305 306 305 304 302 301 300 299 299 301 304 307 309 303 295 290 285 281 279 275 271 269 263 257 250 244 242 240 236 235 235 234 231 228 226 225 225 225 225 227 226 222 221 223 223 222 220 217 216 217 218 215 208 209 214 216 216 214 212 212 211 215 223 225 223 228 236 227 206 210 216 208 206 209 212 216 219 218 211 204 204 203 199
319 315 311 308 307 308 307 306 304 302 299 296 296 296 297 299 302 305 305 302 299 294 287 282 278 274 270 267 264 260 251 245 243 239 235 234 234 231 227 226 225 224 224 224 225 224 221 220 222 223 222 218 215 215 214 214 213 209 210 212 214 215 214 214 213 212 218 224 225 222 224 235 235 208 206 214 206 203 208 210 215 219 218 212 204 203 204 200
319 317 314 313 311 310 308 307 305 302 298 293 291 292 293 294 295 297 299 297 298 300 294 287 283 278 273 268 264 263 259 253 248 244 239 235 234 231 227 225 224 224 224 224 223 222 220 219 221 223 222 219 215 214 214 213 212 210 210 212 213 213 212 212 213 214 220 226 226 223 222 232 236 209 201 211 205 202 206 207 213 217 216 211 205 204 205 203
321 320 318 316 314 312 310 307 304 301 296 290 286 286 287 288 289 291 291 290 290 290 287 285 283 280 279 275 269 264 261 258 254 250 246 241 237 234 229 225 223 224 224 223 223 222 219 217 219 221 222 221 216 214 214 213 213 212 212 213 214 215 214 212 213 215 221 226 226 224 224 231 238 217 198 208 208 202 204 206 210 214 213 210 207 205 207 206
323 322 320 319 318 315 312 309 306 302 297 290 285 283 282 283 284 285 285 285 285 283 280 278 277 276 276 277 276 271 265 260 255 253 251 247 243 238 233 227 223 222 223 223 222 221 219 217 218 219 220 221 218 216 215 213 214 215 215 215 216 218 219 217 217 217 220 225 226 225 224 230 238 226 198 205 212 203 201 203 207 211 211 210 210 208 208 209
326 325 324 323 322 319 316 313 310 306 301 294 288 284 282 281 282 282 281 282 282 281 279 276 274 273 274 275 274 272 268 264 257 253 252 250 247 243 237 231 226 222 222 223 222 220 218 216 217 220 220 220 219 217 215 212 213 214 214 216 217 218 221 222 222 221 223 227 229 229 228 229 237 233 204 202 212 205 198 200 203 207 209 211 213 212 210 210
328 328 328 328 326 324 321 317 314 309 303 297 291 287 284 283 282 282 282 282 281 281 280 278 277 276 277 277 274 268 264 263 260 254 251 250 249 245 241 236 231 225 222 224 223 220 218 216 216 219 220 220 220 219 216 213 213 214 214 217 218 217 219 223 223 221 223 226 229 232 233 232 236 238 217 203 210 206 199 198 199 202 207 211 214 214 213 212
330 330 331 330 327 326 325 323 320 315 309 303 296 292 288 285 284 283 283 283 282 281 281 280 279 278 277 276 272 266 260 258 258 255 251 249 249 246 243 238 235 230 225 223 224 221 218 216 216 218 219 219 219 219 218 216 215 215 216 218 218 217 218 221 222 220 221 225 227 232 234 232 233 236 225 208 208 207 202 199 197 199 205 211 213 214 214 212
332 331 332 329 326 325 325 324 324 320 316 312 306 300 294 290 287 286 284 283 283 282 282 281 279 278 275 271 268 264 260 256 255 254 251 248 247 247 244 240 237 234 228 224 224 223 219 217 217 217 218 218 218 218 218 217 215 215 217 217 217 218 219 221 222 220 220 223 225 229 232 232 230 230 225 212 206 206 205 201 197 198 203 208 209 212 212 210
333 332 332 329 324 322 322 321 320 319 317 315 312 307 302 297 293 289 287 286 286 285 284 283 280 278 274 270 265 261 258 255 254 253 251 248 246 245 244 240 237 235 232 227 224 223 220 218 218 217 218 218 217 217 216 216 215 214 215 216 216 219 220 221 224 223 222 225 226 228 231 231 228 227 226 218 205 204 206 203 198 198 201 203 205 209 211 209
334 333 332 329 325 322 320 318 317 316 314 313 311 309 305 301 296 292 291 290 289 288 287 285 282 279 275 271 267 262 258 255 253 252 251 249 244 242 242 240 237 235 233 230 226 223 221 219 217 217 217 217 217 217 215 216 215 213 213 215 215 217 219 220 223 223 223 226 228 230 232 231 227 225 226 221 208 202 206 205 201 199 199 200 202 206 209 208
336 334 333 330 326 324 321 319 317 315 313 311 311 309 306 302 298 296 295 293 292 289 288 285 283 280 277 273 269 264 259 255 253 251 250 248 244 240 239 239 237 235 233 231 228 225 222 220 217 216 217 217 216 217 216 215 216 214 213 215 215 216 218 219 220 221 222 224 225 228 230 229 225 222 223 220 209 201 203 204 202 200 200 200 201 205 208 208
339 336 335 332 328 325 324 323 320 316 313 313 312 310 307 302 300 298 297 295 293 290 288 286 284 281 278 275 272 267 262 257 254 251 247 245 242 239 238 237 236 235 233 231 229 226 224 222 219 216 216 216 216 217 216 215 216 216 215 215 216 217 219 220 220 220 222 223 225 227 228 225 220 218 220 219 211 202 200 202 202 201 202 201 200 203 206 208
343 342 341 337 332 329 328 327 322 318 317 316 314 312 308 304 302 300 299 297 295 293 291 289 287 285 282 279 276 272 267 261 257 253 247 243 240 238 238 236 235 234 233 231 230 227 225 224 221 218 216 215 216 218 217 215 216 216 215 215 216 217 219 221 221 222 222 223 225 227 227 224 217 215 218 217 211 204 200 200 200 199 200 201 200 202 204 207
348 349 349 345 338 332 331 329 325 322 321 318 316 314 311 308 306 304 301 299 298 297 296 294 292 290 286 283 279 275 271 264 258 254 248 242 238 237 237 236 234 233 232 230 229 228 226 224 222 219 215 214 216 218 216 214 215 215 215 216 216 216 218 220 222 224 223 224 226 226 227 225 216 211 216 216 211 206 201 199 199 198 197 198 200 203 205 206
351 352 352 348 342 336 335 332 327 326 325 322 320 318 316 314 311 307 303 302 303 302 301 299 295 293 290 286 283 279 273 266 258 253 248 241 236 235 234 234 232 231 231 230 229 228 227 224 223 222 217 213 214 216 215 213 213 214 214 215 215 216 217 218 221 224 224 225 226 227 228 225 214 208 215 214 210 209 204 199 199 199 198 196 198 202 204 205
352 354 353 350 347 343 341 337 333 332 331 329 327 325 322 319 313 309 307 308 309 307 305 301 297 294 291 286 285 283 275 263 254 248 243 237 233 231 231 230 229 230 230 229 228 228 228 226 224 223 220 214 212 215 216 214 212 213 213 214 214 215 216 218 220 222 224 224 226 228 229 224 214 209 212 212 211 212 209 203 199 199 200 198 198 200 201 202
352 355 354 353 351 349 347 345 342 340 338 335 333 330 326 321 315 313 313 315 315 312 308 304 298 294 290 283 282 284 278 265 251 242 236 232 228 227 227 226 226 226 228 229 229 228 228 228 226 224 222 217 213 214 217 216 213 212 213 214 215 215 216 217 219 221 223 225 225 227 228 224 216 211 210 210 212 212 210 207 202 200 201 200 200 200 200 201
353 355 356 355 354 352 352 351 348 346 344 341 338 334 328 322 319 319 320 321 321 317 313 308 300 294 292 285 280 280 280 274 262 249 238 230 225 223 223 224 224 224 225 227 228 229 228 229 228 225 222 219 215 214 217 218 215 213 213 214 215 215 215 217 219 220 223 225 225 225 226 223 217 213 210 212 216 215 211 208 202 200 201 201 200 200 201 201
353 355 357 357 355 354 354 353 352 351 349 346 341 336 329 324 323 325 325 326 327 324 318 312 304 298 298 294 284 279 278 276 273 268 257 242 230 224 222 223 223 223 224 224 226 228 229 230 229 227 224 220 217 215 216 218 218 214 212 214 215 216 216 217 218 219 222 225 225 224 224 221 217 213 210 212 218 219 215 210 205 201 201 201 201 202 203 203
354 355 357 357 355 354 355 355 355 354 352 349 345 340 331 325 325 329 331 331 332 329 322 316 308 304 308 308 297 284 277 273 270 268 265 261 250 237 229 226 226 225 225 225 225 226 228 230 231 230 226 221 218 217 216 218 219 216 212 212 215 216 216 217 217 218 221 224 225 224 222 219 214 212 209 208 214 218 216 212 208 205 203 203 203 205 206 206
355 356 357 357 356 356 357 358 358 357 355 352 349 344 334 324 325 331 336 337 336 333 327 319 309 305 311 316 310 297 283 274 269 265 263 262 261 255 245 237 234 230 227 227 227 225 226 228 230 231 229 223 219 219 217 217 219 217 213 212 214 216 217 217 217 218 220 222 224 224 221 215 212 212 206 204 210 213 212 211 208 206 206 206 207 208 209 209
357 357 358 358 359 -0 1 2 2 1 359 356 353 348 338 326 323 328 337 343 343 337 331 323 310 303 308 314 314 309 296 284 277 271 266 262 260 259 256 250 244 238 233 231 229 227 225 226 229 232 231 227 222 220 218 217 218 218 214 211 213 215 217 217 217 218 220 221 222 223 220 213 210 209 202 201 207 210 208 207 205 205 207 208 209 211 212 213
Height
5868 5868 5868 5868 5867 5867 5867 5866 5866 5866 5866 5866 5866 5865 5865 5865 5865 5865 5865 5866 5866 5867 5867 5868 5868 5868 5869 5870 5870 5871 5871 5872 5872 5873 5875 5875 5876 5877 5878 5880 5881 5882 5883 5885 5886 5888 5888 5889 5890 5891 5892 5893 5894 5895 5897 5898 5899 5900 5900 5900 5901 5902 5903 5903 5903 5903 5903 5904 5904 5904 5905 5905 5905 5905 5906 5906 5906 5906 5906 5907 5907 5907 5908 5909 5909 5910 5911 5912
5866 5866 5866 5866 5865 5865 5865 5865 5864 5864 5864 5864 5864 5863 5863 5863 5863 5863 5863 5863 5864 5865 5865 5866 5866 5866 5867 5868 5868 5869 5869 5870 5870 5872 5873 5873 5874 5875 5877 5878 5879 5881 5882 5883 5884 5885 5886 5887 5888 5889 5890 5892 5893 5894 5896 5897 5898 5899 5899 5900 5900 5901 5902 5902 5902 5902 5903 5903 5904 5904 5905 5905 5905 5905 5905 5906 5906 5906 5906 5907 5907 5908 5908 5909 5910 5910 5911 5913
5864 5864 5863 5863 5863 5863 5862 5862 5862 5862 5862 5861 5861 5861 5861 5861 5862 5862 5861 5861 5862 5862 5863 5864 5864 5864 5865 5866 5866 5867 5867 5868 5869 5870 5870 5871 5873 5874 5875 5877 5877 5878 5879 5880 5881 5882 5883 5884 5886 5887 5889 5890 5892 5893 5894 5896 5897 5898 5899 5899 5899 5900 5901 5902 5902 5902 5903 5903 5903 5903 5904 5905 5905 5905 5905 5906 5906 5906 5907 5907 5908 5908 5908 5909 5910 5910 5911 5912
5862 5861 5861 5861 5860 5860 5860 5860 5860 5859 5859 5859 5859 5859 5859 5859 5859 5860 5860 5859 5860 5860 5861 5861 5862 5862 5863 5863 5864 5865 5865 5866 5867 5868 5868 5869 5870 5871 5873 5874 5874 5876 5877 5879 5880 5882 5883 5884 5885 5887 5888 5889 5891 5892 5893 5895 5896 5897 5898 5898 5898 5899 5900 5901 5901 5902 5902 5903 5902 5903 5904 5905 5905 5905 5905 5906 5906 5907 5907 5907 5908 5908 5908 5909 5910 5910 5910 5912
5859 5859 5858 5858 5858 5857 5857 5857 5857 5857 5856 5856 5857 5856 5856 5856 5856 5857 5857 5857 5858 5858 5858 5859 5859 5860 5861 5861 5862 5862 5863 5864 5865 5866 5866 5866 5868 5869 5870 5871 5871 5874 5875 5877 5879 5881 5882 5884 5885 5886 5887 5889 5890 5891 5892 5893 5895 5896 5896 5897 5897 5898 5899 5900 5901 5901 5902 5902 5903 5903 5904 5904 5905 5905 5905 5905 5906 5907 5907 5907 5908 5908 5908 5909 5910 5910 5910 5911
5857 5857 5856 5855 5855 5854 5854 5854 5854 5854 5854 5854 5854 5854 5853 5853 5854 5854 5854 5855 5855 5856 5856 5857 5857 5857 5858 5859 5859 5860 5861 5862 5862 5862 5863 5864 5866 5867 5868 5869 5870 5872 5873 5875 5877 5879 5881 5882 5884 5885 5886 5887 5889 5890 5891 5892 5893 5894 5895 5896 5896 5897 5898 5899 5900 5900 5901 5902 5903 5904 5905 5905 5905 5905 5905 5905 5906 5906 5907 5907 5908 5908 5908 5909 5909 5910 5911 5911
5854 5854 5853 5853 5852 5851 5851 5851 5851 5851 5850 5851 5851 5851 5851 5850 5851 5851 5851 5852 5852 5853 5853 5854 5855 5855 5855 5856 5857 5857 5858 5859 5859 5859 5861 5862 5863 5864 5865 5867 5867 5869 5871 5873 5875 5877 5879 5881 5882 5883 5884 5885 5887 5888 5889 5890 5892 5892 5893 5894 5894 5895 5897 5898 5899 5899 5900 5902 5902 5903 5905 5905 5905 5905 5905 5905 5906 5906 5907 5907 5908 5908 5908 5908 5909 5910 5911 5911
5852 5851 5851 5850 5849 5849 5848 5848 5848 5847 5847 5847 5848 5848 5848 5847 5847 5848 5848 5848 5849 5850 5850 5851 5852 5852 5852 5853 5854 5854 5854 5856 5856 5856 5859 5860 5861 5861 5862 5864 5865 5866 5868 5870 5872 5874 5876 5878 5879 5880 5882 5883 5885 5886 5887 5888 5890 5890 5891 5892 5893 5894 5896 5897 5898 5899 5900 5901 5902 5903 5904 5905 5906 5906 5905 5905 5906 5906 5907 5907 5907 5908 5908 5908 5908 5909 5910 5911
5850 5849 5848 5848 5847 5846 5845 5845 5845 5844 5844 5844 5845 5845 5844 5844 5844 5844 5844 5845 5845 5846 5847 5847 5848 5848 5849 5850 5850 5851 5851 5852 5853 5854 5856 5857 5859 5859 5859 5861 5863 5864 5865 5867 5869 5871 5874 5875 5876 5877 5878 5879 5881 5882 5884 5886 5887 5888 5888 5890 5892 5893 5895 5896 5898 5899 5900 5901 5901 5902 5903 5905 5906 5906 5906 5905 5905 5906 5906 5907 5907 5908 5908 5908 5908 5909 5910 5910
5847 5846 5846 5845 5844 5843 5842 5842 5842 5841 5841 5841 5841 5841 5841 5841 5841 5840 5841 5841 5842 5842 5843 5843 5844 5845 5846 5846 5847 5847 5847 5849 5850 5852 5853 5855 5856 5857 5856 5858 5860 5861 5862 5864 5866 5869 5871 5870 5871 5872 5873 5875 5877 5879 5881 5883 5884 5884 5886 5888 5890 5892 5894 5895 5897 5898 5899 5900 5900 5901 5902 5904 5906 5906 5906 5905 5905 5905 5906 5906 5907 5907 5908 5909 5908 5909 5910 5910
5844 5844 5843 5842 5841 5840 5839 5839 5838 5838 5837 5837 5837 5837 5837 5837 5837 5836 5837 5837 5838 5839 5839 5840 5840 5841 5842 5842 5843 5844 5844 5846 5848 5849 5850 5852 5854 5854 5854 5855 5857 5858 5859 5861 5863 5864 5865 5865 5867 5869 5871 5873 5875 5876 5879 5881 5881 5881 5883 5886 5888 5890 5893 5894 5896 5897 5898 5899 5899 5900 5902 5904 5906 5906 5906 5906 5905 5905 5906 5906 5906 5907 5908 5908 5909 5908 5909 5910
5841 5840 5839 5838 5837 5836 5835 5834 5834 5833 5833 5833 5833 5832 5832 5833 5833 5832 5832 5833 5834 5835 5835 5836 5836 5837 5837 5838 5840 5841 5842 5842 5844 5845 5847 5848 5850 5851 5851 5851 5854 5855 5857 5859 5859 5860 5860 5862 5865 5866 5868 5871 5872 5874 5876 5878 5878 5878 5880 5883 5886 5888 5892 5894 5894 5896 5897 5898 5899 5900 5902 5904 5905 5905 5905 5905 5905 5905 5905 5906 5906 5907 5908 5908 5909 5909 5909 5909
5837 5837 5836 5835 5833 5832 5831 5830 5829 5829 5828 5828 5828 5827 5827 5828 5828 5828 5828 5829 5830 5831 5831 5832 5833 5833 5833 5834 5836 5838 5838 5838 5840 5842 5844 5845 5846 5848 5848 5848 5851 5853 5854 5856 5857 5857 5859 5861 5862 5863 5865 5867 5869 5870 5873 5875 5875 5875 5877 5880 5883 5886 5890 5892 5892 5894 5896 5897 5898 5900 5902 5903 5904 5905 5905 5905 5905 5905 5905 5906 5906 5907 5907 5908 5908 5909 5909 5909
5834 5833 5832 5831 5830 5828 5827 5826 5825 5824 5823 5823 5822 5822 5822 5822 5822 5822 5823 5825 5826 5826 5827 5828 5829 5829 5829 5830 5832 5833 5834 5834 5836 5838 5840 5841 5843 5844 5845 5846 5848 5850 5851 5852 5853 5855 5857 5858 5859 5860 5863 5864 5866 5868 5871 5873 5873 5874 5874 5877 5881 5885 5888 5890 5890 5893 5894 5895 5897 5899 5900 5901 5903 5904 5905 5904 5905 5905 5905 5906 5906 5906 5907 5907 5908 5908 5909 5909
5830 5829 5828 5827 5826 5824 5823 5822 5820 5819 5818 5818 5817 5816 5816 5816 5815 5815 5817 5819 5821 5821 5822 5824 5824 5824 5825 5826 5827 5828 5829 5831 5832 5834 5835 5837 5839 5840 5841 5842 5844 5846 5847 5848 5850 5852 5853 5855 5857 5859 5861 5863 5864 5866 5869 5870 5871 5872 5872 5874 5879 5883 5887 5888 5889 5891 5893 5893 5895 5898 5899 5900 5901 5903 5904 5904 5904 5905 5905 5905 5905 5906 5906 5907 5908 5908 5908 5909
5826 5824 5823 5823 5821 5820 5819 5817 5816 5815 5813 5812 5812 5811 5811 5810 5809 5809 5810 5812 5814 5815 5817 5818 5819 5820 5820 5821 5822 5823 5825 5827 5828 5829 5831 5833 5834 5836 5837 5839 5841 5843 5844 5845 5847 5848 5850 5852 5854 5857 5858 5860 5862 5864 5866 5868 5868 5869 5870 5874 5879 5881 5884 5886 5887 5890 5890 5891 5894 5896 5897 5898 5900 5902 5903 5904 5904 5904 5905 5905 5905 5905 5906 5906 5907 5908 5908 5909
5821 5819 5818 5817 5816 5814 5813 5812 5810 5809 5808 5807 5806 5805 5805 5804 5804 5803 5803 5806 5808 5809 5811 5812 5814 5815 5815 5817 5817 5818 5820 5822 5822 5823 5826 5828 5829 5831 5833 5834 5837 5838 5840 5841 5843 5845 5847 5849 5851 5853 5855 5857 5859 5861 5863 5865 5867 5868 5871 5874 5877 5879 5881 5883 5886 5887 5888 5889 5892 5894 5895 5896 5898 5900 5901 5902 5903 5904 5904 5904 5904 5904 5905 5906 5907 5907 5908 5908
5815 5813 5812 5811 5810 5808 5807 5806 5804 5803 5803 5801 5800 5799 5799 5799 5798 5796 5796 5798 5800 5802 5804 5805 5807 5808 5809 5811 5812 5813 5814 5816 5817 5818 5820 5823 5824 5826 5827 5829 5831 5833 5835 5836 5838 5841 5843 5846 5848 5849 5851 5854 5857 5859 5862 5865 5868 5870 5872 5874 5875 5877 5878 5880 5883 5884 5886 5887 5889 5892 5893 5894 5896 5898 5900 5901 5901 5902 5902 5903 5903 5903 5904 5905 5906 5906 5907 5907
5810 5807 5806 5805 5803 5801 5800 5799 5798 5797 5796 5795 5794 5793 5793 5793 5792 5790 5789 5791 5793 5795 5796 5798 5800 5801 5803 5805 5807 5808 5808 5809 5811 5813 5815 5817 5819 5820 5822 5823 5826 5828 5830 5832 5834 5836 5840 5842 5843 5846 5851 5855 5857 5859 5861 5864 5867 5869 5870 5871 5873 5874 5875 5877 5879 5881 5883 5885 5887 5890 5891 5892 5894 5896 5898 5899 5899 5900 5900 5901 5902 5903 5904 5905 5905 5906 5906 5906
5803 5801 5799 5797 5796 5794 5793 5792 5791 5790 5789 5788 5788 5787 5787 5786 5786 5784 5782 5783 5786 5787 5789 5790 5792 5794 5796 5799 5800 5802 5802 5803 5805 5807 5809 5812 5813 5815 5816 5818 5820 5822 5825 5828 5830 5833 5835 5837 5840 5846 5852 5854 5855 5856 5857 5860 5863 5865 5866 5868 5869 5871 5873 5874 5875 5877 5880 5882 5884 5887 5888 5889 5891 5894 5895 5897 5897 5898 5900 5901 5902 5903 5903 5904 5905 5905 5905 5906
5797 5794 5792 5790 5789 5787 5786 5785 5783 5782 5782 5781 5781 5781 5780 5779 5780 5779 5777 5775 5776 5780 5782 5783 5785 5787 5789 5791 5793 5795 5796 5797 5799 5801 5804 5806 5807 5809 5811 5812 5814 5817 5822 5824 5826 5828 5829 5832 5840 5846 5848 5848 5849 5850 5852 5855 5858 5861 5862 5864 5866 5868 5870 5871 5871 5873 5876 5879 5882 5884 5886 5887 5889 5891 5892 5894 5896 5898 5900 5901 5901 5902 5902 5903 5904 5904 5905 5905
5792 5789 5786 5784 5782 5781 5779 5778 5776 5775 5775 5774 5774 5773 5772 5772 5772 5773 5773 5769 5767 5771 5773 5775 5777 5779 5782 5784 5786 5789 5790 5790 5792 5795 5798 5801 5802 5803 5805 5807 5809 5813 5817 5818 5820 5823 5824 5831 5841 5843 5841 5842 5844 5846 5848 5851 5854 5855 5857 5860 5863 5865 5869 5869 5869 5870 5872 5875 5879 5880 5883 5885 5886 5887 5889 5892 5896 5897 5898 5899 5899 5899 5900 5901 5902 5903 5903 5904
5787 5785 5782 5778 5777 5775 5773 5771 5769 5768 5768 5766 5766 5765 5764 5764 5764 5765 5767 5765 5762 5763 5765 5766 5769 5772 5775 5776 5779 5782 5783 5783 5785 5788 5792 5795 5796 5798 5800 5803 5805 5807 5809 5811 5815 5818 5822 5832 5839 5837 5836 5838 5840 5842 5845 5847 5849 5851 5853 5856 5859 5863 5866 5866 5865 5866 5867 5872 5876 5877 5880 5882 5882 5883 5886 5891 5894 5895 5895 5896 5896 5896 5897 5899 5899 5899 5901 5902
5783 5780 5777 5774 5771 5770 5768 5766 5763 5762 5761 5760 5760 5759 5758 5757 5756 5756 5758 5758 5756 5756 5757 5758 5760 5763 5766 5769 5772 5774 5775 5777 5779 5781 5785 5788 5790 5792 5795 5798 5800 5801 5804 5807 5810 5814 5819 5829 5833 5829 5831 5835 5836 5838 5840 5842 5845 5848 5851 5854 5857 5860 5863 5863 5863 5864 5865 5868 5872 5874 5875 5877 5878 5880 5884 5888 5890 5891 5892 5893 5894 5895 5896 5896 5897 5898 5900 5901
5778 5776 5773 5770 5766 5765 5764 5762 5759 5758 5757 5756 5755 5754 5753 5751 5751 5750 5750 5751 5750 5750 5751 5751 5753 5755 5758 5761 5764 5766 5768 5770 5772 5775 5778 5781 5784 5786 5789 5792 5794 5796 5799 5802 5805 5808 5814 5823 5825 5823 5826 5830 5831 5833 5836 5839 5843 5845 5848 5852 5855 5857 5858 5860 5860 5861 5862 5863 5867 5870 5870 5873 5875 5877 5881 5883 5886 5889 5890 5892 5893 5895 5895 5896 5897 5899 5900 5900
5774 5771 5768 5766 5762 5761 5760 5758 5756 5754 5752 5751 5751 5750 5748 5747 5746 5745 5745 5745 5745 5744 5744 5745 5746 5748 5751 5754 5756 5758 5761 5762 5764 5768 5771 5774 5777 5780 5783 5785 5788 5791 5795 5797 5798 5802 5809 5817 5818 5817 5820 5824 5825 5829 5832 5835 5839 5842 5847 5850 5851 5852 5853 5856 5857 5857 5857 5858 5862 5864 5865 5870 5872 5873 5876 5879 5882 5886 5887 5889 5892 5893 5894 5896 5897 5898 5899 5900
5769 5766 5764 5762 5759 5757 5756 5755 5753 5751 5749 5747 5747 5746 5744 5742 5741 5740 5740 5740 5740 5739 5738 5739 5740 5742 5744 5747 5749 5751 5752 5754 5758 5761 5763 5766 5769 5773 5776 5778 5781 5785 5789 5790 5791 5796 5805 5810 5811 5812 5816 5819 5821 5825 5829 5832 5835 5840 5845 5845 5844 5847 5849 5851 5853 5853 5853 5855 5857 5859 5860 5865 5868 5869 5872 5875 5877 5881 5884 5887 5889 5890 5893 5895 5896 5897 5898 5899
5765 5762 5760 5758 5756 5754 5753 5751 5749 5748 5746 5744 5743 5742 5740 5739 5737 5736 5736 5736 5736 5735 5734 5735 5735 5736 5739 5741 5742 5743 5744 5747 5751 5753 5755 5759 5762 5765 5769 5771 5775 5778 5781 5784 5786 5792 5801 5804 5806 5809 5812 5815 5820 5825 5827 5828 5831 5837 5840 5838 5839 5843 5844 5847 5848 5848 5851 5851 5851 5854 5855 5858 5864 5868 5869 5870 5873 5876 5881 5885 5887 5889 5891 5893 5895 5896 5897 5898
5761 5758 5756 5754 5753 5751 5750 5748 5746 5744 5742 5740 5739 5738 5736 5735 5733 5732 5732 5731 5731 5731 5731 5731 5731 5733 5735 5735 5736 5737 5738 5741 5743 5746 5749 5751 5753 5757 5761 5764 5768 5770 5774 5777 5780 5787 5795 5798 5800 5803 5806 5811 5817 5821 5822 5822 5826 5832 5833 5831 5834 5837 5838 5841 5841 5844 5846 5843 5843 5849 5851 5851 5858 5866 5865 5865 5869 5874 5879 5883 5885 5887 5889 5891 5894 5894 5895 5896
5757 5755 5754 5752 5750 5748 5746 5744 5743 5741 5739 5737 5735 5734 5733 5732 5730 5729 5728 5727 5727 5727 5728 5728 5728 5729 5730 5731 5731 5732 5733 5734 5736 5739 5742 5743 5745 5750 5753 5756 5760 5763 5766 5769 5773 5779 5788 5791 5793 5795 5800 5806 5810 5812 5814 5817 5822 5826 5826 5825 5828 5830 5833 5835 5836 5839 5838 5833 5838 5846 5847 5846 5851 5859 5861 5862 5869 5873 5876 5880 5882 5885 5887 5890 5892 5893 5894 5895
5754 5752 5751 5749 5747 5745 5742 5739 5738 5737 5735 5733 5731 5730 5729 5728 5727 5726 5725 5725 5724 5724 5724 5724 5724 5725 5726 5727 5726 5726 5728 5729 5730 5732 5734 5736 5738 5742 5745 5749 5752 5756 5758 5762 5766 5773 5780 5785 5786 5789 5793 5798 5802 5804 5808 5812 5815 5818 5818 5819 5821 5824 5827 5829 5831 5833 5829 5829 5837 5843 5845 5843 5843 5852 5860 5862 5868 5871 5872 5877 5880 5882 5885 5888 5890 5891 5893 5894
5751 5749 5748 5745 5743 5741 5738 5735 5733 5732 5730 5728 5727 5727 5725 5725 5724 5723 5723 5722 5721 5721 5721 5721 5721 5721 5721 5722 5722 5722 5723 5724 5725 5726 5728 5730 5731 5734 5738 5742 5745 5748 5751 5755 5760 5766 5773 5778 5781 5783 5785 5790 5794 5798 5801 5805 5808 5810 5811 5813 5815 5817 5820 5822 5824 5826 5825 5829 5836 5839 5841 5837 5836 5848 5858 5860 5864 5867 5870 5875 5878 5880 5883 5885 5887 5889 5891 5891
5748 5746 5744 5741 5739 5736 5734 5732 5729 5728 5726 5724 5723 5722 5722 5721 5720 5720 5719 5718 5717 5718 5717 5717 5717 5717 5717 5717 5718 5717 5718 5719 5720 5720 5722 5724 5726 5728 5731 5735 5739 5741 5745 5750 5754 5759 5766 5770 5773 5775 5778 5782 5788 5792 5795 5799 5802 5804 5805 5808 5810 5811 5813 5817 5819 5822 5824 5828 5832 5836 5837 5832 5832 5845 5855 5858 5862 5866 5868 5872 5875 5878 5880 5882 5885 5886 5887 5888
5744 5742 5739 5737 5734 5732 5729 5727 5725 5723 5722 5721 5719 5718 5717 5717 5716 5716 5716 5714 5713 5713 5713 5713 5713 5713 5713 5713 5714 5713 5713 5714 5715 5715 5716 5718 5720 5722 5725 5729 5732 5735 5738 5742 5746 5751 5757 5762 5765 5767 5770 5776 5782 5786 5790 5795 5798 5800 5804 5806 5807 5809 5812 5816 5818 5821 5823 5825 5829 5831 5830 5829 5831 5841 5853 5858 5860 5864 5866 5869 5872 5875 5877 5879 5881 5882 5884 5886
5741 5738 5735 5733 5730 5727 5725 5723 5721 5719 5718 5716 5715 5713 5713 5712 5712 5712 5711 5710 5709 5709 5709 5709 5708 5708 5708 5708 5709 5709 5709 5709 5709 5710 5710 5711 5714 5717 5720 5723 5726 5729 5732 5734 5738 5743 5749 5755 5759 5762 5765 5771 5776 5779 5784 5789 5792 5796 5799 5800 5802 5807 5812 5815 5817 5821 5823 5824 5826 5824 5823 5827 5831 5839 5852 5857 5858 5861 5864 5866 5868 5871 5874 5875 5877 5879 5882 5885
5737 5734 5732 5729 5726 5723 5721 5719 5717 5715 5713 5712 5710 5709 5708 5707 5707 5707 5706 5706 5705 5704 5703 5703 5703 5702 5702 5702 5703 5703 5704 5704 5704 5704 5704 5704 5707 5711 5714 5717 5719 5723 5725 5727 5731 5736 5742 5748 5752 5756 5760 5765 5770 5774 5780 5784 5787 5790 5792 5794 5799 5806 5809 5810 5812 5817 5819 5819 5820 5818 5820 5829 5832 5837 5849 5855 5855 5858 5861 5862 5864 5867 5870 5872 5875 5878 5880 5883
5734 5731 5728 5725 5722 5720 5718 5716 5714 5712 5710 5708 5706 5705 5704 5703 5702 5702 5701 5700 5699 5699 5698 5697 5696 5696 5695 5695 5695 5696 5697 5698 5698 5699 5698 5699 5701 5704 5708 5711 5713 5716 5718 5721 5724 5729 5735 5741 5745 5749 5754 5758 5764 5770 5775 5779 5783 5786 5788 5793 5799 5802 5801 5802 5805 5810 5813 5813 5814 5814 5818 5826 5830 5834 5844 5851 5854 5856 5858 5860 5862 5865 5868 5870 5873 5876 5878 5880
5731 5727 5725 5722 5719 5716 5714 5712 5710 5708 5706 5704 5702 5701 5700 5699 5698 5697 5696 5695 5693 5692 5692 5690 5689 5689 5688 5688 5689 5690 5690 5691 5692 5693 5693 5694 5695 5697 5701 5705 5707 5709 5712 5715 5718 5722 5729 5735 5738 5743 5748 5753 5758 5764 5769 5773 5777 5781 5785 5790 5793 5793 5794 5796 5799 5804 5807 5807 5809 5811 5814 5820 5826 5832 5840 5847 5851 5854 5856 5859 5860 5862 5865 5867 5871 5874 5876 5878
5727 5724 5721 5718 5715 5713 5711 5708 5706 5704 5702 5700 5698 5696 5695 5694 5693 5692 5690 5689 5688 5687 5686 5685 5683 5683 5682 5682 5682 5683 5684 5685 5685 5686 5688 5689 5690 5691 5694 5697 5700 5702 5705 5709 5712 5716 5722 5727 5731 5736 5742 5747 5752 5757 5761 5766 5770 5775 5779 5783 5784 5785 5790 5793 5796 5801 5805 5805 5806 5808 5810 5814 5823 5831 5837 5843 5849 5852 5853 5856 5858 5860 5862 5866 5869 5872 5874 5876
5724 5720 5717 5714 5711 5709 5707 5705 5703 5701 5698 5696 5695 5693 5691 5689 5688 5687 5685 5684 5683 5681 5680 5679 5678 5677 5676 5675 5676 5677 5678 5678 5679 5680 5682 5683 5684 5686 5687 5690 5693 5696 5699 5703 5706 5710 5715 5719 5725 5730 5735 5741 5745 5749 5754 5759 5763 5767 5771 5773 5776 5780 5785 5788 5791 5796 5800 5801 5803 5805 5806 5812 5822 5829 5833 5838 5844 5848 5850 5853 5855 5857 5860 5863 5867 5870 5872 5874
5721 5717 5714 5711 5708 5705 5703 5701 5699 5697 5694 5693 5691 5689 5687 5685 5683 5682 5680 5679 5678 5676 5675 5673 5672 5671 5670 5669 5669 5670 5671 5671 5673 5674 5675 5676 5677 5679 5681 5683 5687 5690 5693 5697 5700 5704 5708 5711 5718 5724 5728 5733 5739 5744 5749 5752 5755 5760 5763 5765 5770 5775 5778 5781 5785 5790 5793 5795 5798 5800 5802 5808 5819 5826 5829 5834 5839 5844 5847 5850 5853 5855 5857 5860 5864 5866 5869 5871
5718 5714 5711 5708 5704 5702 5700 5697 5695 5693 5691 5689 5687 5685 5683 5681 5679 5677 5676 5675 5673 5672 5670 5668 5666 5665 5664 5663 5663 5663 5664 5664 5665 5667 5668 5669 5671 5673 5675 5678 5681 5684 5687 5691 5694 5698 5701 5705 5711 5717 5722 5728 5734 5738 5742 5746 5749 5754 5758 5761 5766 5770 5772 5776 5781 5785 5789 5791 5793 5796 5797 5803 5815 5823 5826 5831 5836 5839 5842 5845 5849 5852 5855 5857 5860 5863 5866 5868
5715 5711 5708 5705 5701 5698 5696 5694 5691 5689 5687 5685 5683 5682 5679 5677 5675 5674 5672 5671 5669 5667 5665 5663 5661 5659 5658 5657 5656 5656 5656 5657 5658 5659 5661 5663 5664 5667 5669 5672 5675 5678 5681 5685 5688 5691 5695 5699 5704 5711 5717 5724 5729 5731 5735 5741 5744 5748 5752 5756 5760 5764 5767 5772 5777 5780 5783 5785 5789 5792 5793 5800 5813 5821 5823 5827 5832 5835 5838 5840 5844 5848 5851 5854 5857 5859 5862 5865
5713 5709 5705 5702 5699 5696 5693 5690 5688 5686 5684 5682 5680 5678 5675 5673 5672 5670 5668 5667 5665 5663 5660 5658 5656 5654 5652 5651 5650 5650 5649 5650 5651 5652 5654 5657 5659 5661 5663 5666 5669 5672 5675 5679 5681 5685 5688 5692 5697 5704 5711 5717 5721 5723 5728 5734 5737 5741 5746 5750 5754 5758 5763 5769 5774 5775 5778 5781 5785 5788 5790 5798 5812 5819 5820 5824 5828 5831 5834 5837 5839 5843 5846 5850 5853 5856 5858 5861
5711 5707 5703 5700 5697 5694 5691 5688 5685 5682 5681 5678 5676 5674 5671 5670 5669 5667 5665 5663 5661 5658 5656 5653 5651 5649 5647 5646 5645 5644 5644 5644 5645 5646 5648 5651 5653 5655 5658 5660 5663 5666 5669 5672 5675 5679 5682 5686 5691 5696 5702 5708 5712 5715 5719 5724 5729 5734 5739 5743 5748 5753 5758 5764 5767 5769 5773 5779 5782 5785 5788 5797 5811 5816 5817 5820 5824 5827 5830 5833 5835 5838 5842 5845 5849 5851 5854 5856
5710 5706 5702 5698 5695 5692 5689 5686 5683 5680 5678 5675 5673 5670 5668 5667 5666 5664 5662 5660 5657 5655 5652 5649 5647 5644 5643 5642 5641 5640 5640 5640 5640 5641 5643 5645 5648 5650 5652 5655 5658 5660 5663 5666 5670 5673 5676 5680 5685 5689 5695 5702 5707 5709 5712 5718 5724 5729 5733 5737 5742 5747 5753 5757 5761 5764 5769 5775 5778 5780 5785 5796 5808 5813 5814 5817 5820 5822 5825 5828 5831 5833 5836 5839 5842 5845 5849 5851
5708 5705 5701 5696 5693 5690 5687 5684 5681 5677 5675 5672 5670 5667 5665 5664 5663 5661 5659 5656 5654 5651 5648 5645 5643 5641 5640 5639 5638 5638 5637 5637 5637 5637 5639 5641 5643 5646 5648 5650 5653 5655 5658 5661 5664 5668 5671 5675 5678 5683 5689 5696 5701 5704 5707 5713 5719 5724 5729 5733 5737 5742 5747 5752 5755 5760 5766 5770 5772 5777 5784 5794 5804 5809 5811 5813 5814 5816 5819 5822 5825 5828 5831 5833 5836 5839 5842 5845
5706 5703 5699 5695 5692 5688 5685 5682 5679 5675 5672 5670 5667 5665 5663 5662 5660 5658 5655 5653 5651 5648 5645 5642 5640 5638 5637 5636 5635 5635 5635 5635 5635 5635 5636 5637 5639 5641 5643 5645 5648 5651 5653 5656 5659 5663 5666 5669 5672 5677 5683 5689 5695 5699 5703 5707 5713 5719 5724 5728 5733 5737 5742 5747 5751 5758 5762 5763 5766 5774 5782 5791 5799 5804 5807 5810 5810 5812 5814 5817 5820 5823 5826 5829 5832 5834 5837 5839
5705 5702 5699 5695 5691 5688 5684 5680 5677 5673 5670 5668 5665 5663 5661 5659 5658 5656 5653 5650 5648 5645 5641 5638 5636 5635 5634 5634 5633 5632 5632 5632 5632 5632 5633 5634 5635 5637 5639 5642 5644 5647 5649 5652 5655 5658 5661 5663 5667 5672 5677 5684 5690 5694 5698 5702 5707 5713 5719 5724 5728 5732 5738 5743 5747 5754 5757 5757 5763 5773 5779 5787 5795 5800 5803 5807 5808 5809 5812 5814 5816 5818 5821 5824 5826 5829 5832 5835
5704 5701 5697 5694 5690 5686 5683 5679 5675 5672 5669 5666 5664 5662 5659 5657 5656 5654 5651 5648 5645 5642 5639 5636 5634 5632 5632 5631 5630 5630 5630 5630 5630 5630 5630 5631 5632 5634 5636 5638 5640 5642 5645 5648 5650 5653 5657 5660 5663 5667 5671 5678 5684 5689 5693 5696 5701 5708 5714 5720 5724 5728 5733 5738 5743 5749 5751 5753 5760 5768 5775 5784 5791 5794 5798 5802 5804 5806 5809 5812 5813 5815 5818 5820 5822 5825 5828 5832
5704 5700 5697 5693 5690 5686 5682 5678 5674 5671 5668 5665 5662 5660 5657 5655 5653 5651 5649 5646 5643 5640 5636 5634 5632 5630 5629 5628 5627 5627 5627 5627 5627 5627 5628 5629 5629 5631 5633 5635 5636 5638 5641 5644 5646 5650 5653 5656 5658 5661 5666 5672 5678 5683 5687 5691 5696 5702 5709 5715 5720 5723 5728 5733 5739 5743 5745 5749 5755 5762 5771 5781 5786 5789 5794 5798 5799 5801 5805 5807 5810 5812 5815 5817 5820 5823 5826 5829
5704 5700 5696 5693 5689 5685 5681 5677 5673 5670 5667 5664 5661 5658 5656 5654 5651 5649 5647 5645 5641 5638 5635 5632 5630 5628 5627 5626 5626 5625 5625 5625 5625 5625 5625 5626 5627 5628 5629 5631 5632 5635 5637 5639 5642 5645 5649 5651 5654 5656 5661 5668 5673 5677 5682 5686 5690 5695 5704 5711 5716 5719 5723 5728 5733 5737 5738 5744 5751 5758 5768 5778 5783 5786 5791 5793 5795 5798 5800 5803 5806 5809 5812 5815 5818 5821 5824 5826